Regional Weather Roundup
Issued by NWS

Home | Current Version | Previous Version | Graphics & Text | Print | Product List | Glossary Off
Versions: 1 2 3 4 5 6 7 8 9 10 11 12 13 14 15 16 17 18 19 20 21 22 23 24 25 26 27 28 29 30 31 32 33 34 35 36 37 38 39 40 41 42 43 44 45 46 47 48 49 50

719
ASUS43 KLSX 170057
RWRMO

WEATHER SUMMARY FOR MISSOURI
NATIONAL WEATHER SERVICE SPRINGFIELD MO
700 PM CST TUE JAN 16 2018

NOTE: "FAIR" INDICATES FEW OR NO CLOUDS BELOW 12,000 FEET WITH NO
       SIGNIFICANT WEATHER AND/OR OBSTRUCTIONS TO VISIBILITY.
       CURRENT SKY AND/OR WEATHER CONDITIONS ARE NOT AVAILABLE FOR
       CHILLICOTHE AND FARMINGTON.

MOZ001>031-035>038-043-044-053-054-170200-
...NORTHERN AND WESTERN MISSOURI...

CITY           SKY/WX    TMP DP  RH WIND       PRES   REMARKS
KANSAS CTY INT PTCLDY     4  -2  76 NW3       30.71S
LEE`S SUMMIT   CLEAR      6  -1  73 NW6       30.71S WCI  -4
ST JOSEPH      CLOUDY     3  -1  83 W5        30.74R WCI  -6

$$
MOZ066>068-077>081-088>096-101>105-170200-
...SOUTHWEST MISSOURI...

CITY           SKY/WX    TMP DP  RH WIND       PRES   REMARKS
SPRINGFIELD    MOCLDY     4  -2  76 NW3       30.68R
JOPLIN         PTCLDY     3  -1  83 CALM      30.74R
BRANSON        PTCLDY     3  -2  78 NW8       30.68R WCI -10

$$
MOZ032>034-039>042-045>050-055>058-069>072-170200-
...CENTRAL MISSOURI...

CITY           SKY/WX    TMP DP  RH WIND       PRES   REMARKS
COLUMBIA       NOT AVBL
JEFFERSON CITY CLOUDY     8   0  69 W6        30.75R WCI  -2
ROLLA          CLOUDY     6   0  76 W9        30.67R WCI  -8
SEDALIA        CLEAR      5   1  83 NW6       30.71S WCI  -6
WARRENSBURG    CLEAR      7   0  72 NW3       30.73S

$$
MOZ051-052-059>065-170200-
...EAST CENTRAL MISSOURI...

CITY           SKY/WX    TMP DP  RH WIND       PRES   REMARKS
ST LOUIS INTL  FLURRIES   8   2  76 NW7       30.69R WCI  -3

$$
MOZ072>076-082>087-097>100-106>115-170200-
...SOUTH CENTRAL AND SOUTHEAST MISSOURI...

CITY           SKY/WX    TMP DP  RH WIND       PRES   REMARKS
CAPE GIRARDEAU CLOUDY    13   3  64 N7        30.69R WCI   3
POPLAR BLUFF   CLOUDY   N/A N/A N/A NW6       30.68R
WEST PLAINS    CLEAR      5  -3  69 NW5       30.65R WCI  -4

$$



USA.gov is the U.S. government's official web portal to all federal, state and local government web resources and services.